Погода в Славгороде

Погода в Славгороде : погода сейчас, прогноз погоды и архив. Всё, что Вы хотите узнать о погоде в Славгороде!

Хотите узнать прогноз погоды в Славгороде? Тогда Вам сюда: Погода в Славгороде

Поиск расширенной информации на нашем сайте:

Полезная информация: Лучшие всесезонные легковые шины покупайте только у надежного производителя Goodyear

Другие новости

Новости СМИ2

Главная страница сайта

Новости сайта

02.10.2013

Напоминаем, что на нашем новом сайте вы можете получить высокодетализированные прогнозы погоды по пунктам России, СНГ и мира (включающие важные для авиации метеовеличины, такие как направление и скорость ветра, видимость, явления погоды, количество и форма облачности, нижняя и верхняя граница облачности), а также ознакомиться с разнообразными материалами по авиационной метеорологии и подборкой полезных ссылок на эту тему.

Сайт Метеоцентр.Азия посвящён разработке технологий оптимизации авиаметеорологического обслуживания, включая проектирование и перспективное создание нескольких автоматизированных авиаметеорологических систем:
- система выпуска высокодетальных прогностических карт явлений погоды для нижнего воздушного пространства по России и ближнему зарубежью;
- система верификации прогнозов TAF (выпускаемых синоптиками официальных АМСГ РФ и ближнего зарубежья) и AUTOTAF (выпускаемых сайтом Метеоцентр.Азия) - выявление ошибок, онлайн-сопоставление с фактической погодой METAR, автоматическое внесение коррективов в прогнозы при резком отклонении фактической погоды от прогноза, подсчёт оправдываемости прогнозов по элементам и в целом;
- система обработки, анализа и отображения авиаметеорологической информации для применения провайдерами метеорологической информации.

Рекомендуем: Блок излучения купить аппарат лазерной терапии УзорМед.

Погода в Славгороде - сегодня

Время (UTC), дата Ветер
(°,м/с) 
Видим.   Явления Облачность Т
(°С)
Тd
(°С)
f(%) Тe
(°С)
Pmin
(гПа)
dP
(гПа)
Po
(мм)
O2
(г/м3)
Тmin Tmax R s Состояние
почвы
06 24.04.17 270 (З) 8-13{15}  20000 м    9/8 630 м кучево-дожд., верхняя 
[Cb cap|Ci sp]
+11.9 +2.3 52 +10  1018.3  1.5  752  290           
09 24.04.17 270 (З) 7-11{14}  20000 м    10/10 660 м кучево-дожд. 
[Cb cap]
+10.9 +1.6 53 +9  1020.6  2.2  754  292           
12 24.04.17 280 (З) 5{12}  20000 м    10/3 600 м кучево-дожд., верхняя 
[Cb cap|Ci sp]
+10.5 +2 56 +9  1021.7  1.1  755  293    +12.3       
15 24.04.17 280 (З) 20000 м    8/8 660 м кучево-дожд. 
[Cb cap]
+8.7 +2.7 66 +8  1023.8  756  295           
18 24.04.17 280 (З) 20000 м    10/10 630 м кучево-дожд. 
[Cb cap]
+7 +3.5 78 +8  1025.4  1.4  757  297           
21 24.04.17 290 (З) 20000 м    ясно 
+3.4 +1.6 88 +4  1026.7  1.2  758  302           
00 25.04.17 270 (З) 20000 м    ясно 
+1.1 +0.1 93 +2  1028.4  1.4  759  305  +0.2         
03 25.04.17 110 (В) 20000 м    4/0 верхняя 
[Ci sp]
+10.7 +2.8 58 +11  1028.7  0.9  760  294           
06 25.04.17 110 (В) 20000 м    8/0 верхняя 
[Ci sp]
+14.1 +0.6 40 +14  1028.1  -0.5  760  291           
09 25.04.17 150 (ЮВ) 4{10}  20000 м    10/0 верхняя 
[Ci sp]
+16.2 +0.8 35 +16  1026.9  -1  759  289           
12 25.04.17 140 (ЮВ) 5{11}  20000 м    10/0 верхняя 
[Ci sp]
+17.1 -0.6 30 +17  1025.6  -1.3  758  287    +17.3       
15 25.04.17 110 (В) 20000 м    1/0 верхняя 
[Ci sp]
+10.7 +1.1 51 +10  1025.7  -0.2  758  294           
18 25.04.17 140 (ЮВ) 20000 м    ясно 
+9 +1.5 59 +8  1025.5  -0.3  758  295           
21 25.04.17 120 (ЮВ) 20000 м    ясно 
+5.5 +0.4 70 +5  1024.4  -1.2  757  299           
00 26.04.17 110 (В) 20000 м    3/0 верхняя 
[Ci sp]
+5.2 +2.3 82 +4  1023.3  -1.1  756  298  +4.7         
03 26.04.17 110 (В) 20000 м    ясно 
+13.7 +2.8 48 +13  1022.1  -0.7  755  289           
06 26.04.17 150 (ЮВ) 20000 м    3/0 верхняя 
[Ci sp]
+19.3 +0.9 29 +20  1020.1  -1.8  754  284           
09 26.04.17 170 (Ю) 4{10}  20000 м    6/0 верхняя 
[Ci sp]
+23.4 +0.3 22 +23  1017.9  -1.9  752  279           
12 26.04.17 160 (Ю) 20000 м    3/0 верхняя 
[Ci sp]
+24.7 -1.5 18 +25  1016.3  -1.5  751  278    +24.9       
15 26.04.17 150 (ЮВ) 20000 м    ясно 
+15.2 +1.3 39 +15  1015.9  -0.9  751  286           
18 26.04.17 170 (Ю) 20000 м    ясно 
+12.6 +0.9 45 +12  1015.1  -0.9  750  289           
21 26.04.17 160 (Ю) 20000 м    ясно 
+10.3 +1.4 54 +10  1013.8  -1.4  749  291           
00 27.04.17 170 (Ю) 20000 м    8/0 верхняя 
[Ci sp]
+11 +2.9 57 +10  1012.2  -1.6  748  289  +9.8         
03 27.04.17 190 (Ю) 20000 м    4/0 верхняя 
[Ci sp]
+18.3 +4.6 40 +19  1011.8  748  282           
06 27.04.17 250 (З) 20000 м    3/0 верхняя 
[Ci sp]
+24.9 +6 30 +25  1012.2  0.8  748  275           
Время (UTC), дата Ветер
(°,м/с) 
Видим.   Явления Облачность Т
(°С)
Тd
(°С)
f(%) Тe
(°С)
Pmin
(гПа)
dP
(гПа)
Po
(мм)
O2
(г/м3)
Тmin Tmax R s Состояние
почвы

Для получения пояснительной информации подведите курсор к названию столбца.

ПОГОДА в Славгороде - архив

Всё, что Вы хотите узнать о погоде в Славгороде - удобно и подробно!

Выберите нужную дату (начиная с 1 января 2015* года) и нажмите кнопку "Найти".
Будут отображены архивные сводки погоды по пункту Славгород, начиная с указанной даты.


Отображать данные в формате CSV (для использования в таблицах Excel)


Внимание! Наш архив погоды предназначен исключительно для личного некоммерческого использования в познавательных целях. Если Вам необходимы официальные справки о состоянии погоды (для производственных, юридических, коммерческих и т.п. целей), обращайтесь в органы Росгидромета.

*Примечание: данная дата относится к архиву по метеостанциям СССР (Россия, СНГ, Балтия).
Архив по метеостанциям Зарубежной Европы и Азии (кроме Китая) хранится 10 дней, по другим регионам земного шара (Китай, Африка, Америка, Австралия, Океания) - 1 день.

Славгород - район местоположения метеостанции


Название, широта, долгота, высота метеостанции:
Славгород 53°ш. 78.6°д. 126 м над ур. моря [Российская Федерация]

Дополнительная информация

В oтличие oт бoльшинства пoгoдных сайтoв мы публикуем пoдрoбную метеoинфoрмацию в детальнoм прoфессиoнальнoм фoрмате.

Характеристики температуры и влажнoсти вoздуха измеряются на высoте 2 м в тени вдали oт зданий и деревьев.
Скoрoсть ветра измеряется на высoте 10 м (на урoвне рoста челoвека скoрoсть ветра ниже в 1.5-2 раза). Если метеoстанция нахoдится в гoрoде или в лесу, тo скoрoсть ветра занижена на 2-4 м/с пo сравнению с oткрытым местoм. Скoрoсть ветра над акватoриями крупных рек и oзёр, а также на вершинах хoлмoв на 2-5 м/с выше, чем в oбычных услoвиях.
Атмoсфернoе давление в разных тoчках местнoсти мoжет значительнo oтличаться oт давления на метеoстанции, в зависимoсти oт услoвий рельефа (при пoдъёме на 10 м давление пoнижается примернo на 1 мм рт.ст.).